DF5HRN-11 Weather Reports


Display with metric or nautical units.
time (UTC)temp
F
wind
direction
speed
MPH
gust
MPH
rain 1hr
in
rain 24hr
in
rain mn
in
humidity
%
barometer
mb
20190419021410 47 135 2.0 0.0 0.00 0.00 0.00 54 961.2
20190419020309 47 135 4.0 0.0 0.00 0.00 0.00 54 961.1
20190419015208 48 135 4.0 0.0 0.00 0.00 0.00 55 961.1
20190419013855 47 135 4.0 0.0 0.00 0.00 0.00 56 961.1
20190419012755 47 157 7.0 0.0 0.00 0.00 0.00 55 961.2
20190419011654 48 135 4.0 0.0 0.00 0.00 0.00 55 961.2
20190419010553 47 135 7.0 0.0 0.00 0.00 0.00 55 961.2
20190419005453 47 135 2.0 0.0 0.00 0.00 0.00 55 961.2
20190419004352 47 157 2.0 0.0 0.00 0.00 0.00 54 961.2
20190419003252 48 157 2.0 0.0 0.00 0.00 0.00 53 961.4
20190419002151 48 135 4.0 0.0 0.00 0.00 0.00 54 961.3
20190419001051 49 135 4.0 0.0 0.00 0.00 0.00 53 961.3
20190418235951 49 135 4.0 0.0 0.00 0.00 0.00 53 961.3
20190418234850 49 0 0.0 0.0 0.00 0.00 0.00 53 961.4
20190418233750 49 135 7.0 0.0 0.00 0.00 0.00 53 961.4
20190418232649 49 135 7.0 0.0 0.00 0.00 0.00 53 961.3
20190418231549 49 135 7.0 0.0 0.00 0.00 0.00 53 961.3
20190418230448 50 135 9.0 0.0 0.00 0.00 0.00 54 961.3
20190418225348 50 135 7.0 0.0 0.00 0.00 0.00 53 961.3
20190418224247 50 157 9.0 0.0 0.00 0.00 0.00 53 961.3
20190418223147 50 0 0.0 0.0 0.00 0.00 0.00 53 961.3
20190418222045 51 135 7.0 0.0 0.00 0.00 0.00 52 961.2
20190418220945 51 135 7.0 0.0 0.00 0.00 0.00 52 961.2
20190418215844 51 135 4.0 0.0 0.00 0.00 0.00 52 961.1
20190418214744 51 135 7.0 0.0 0.00 0.00 0.00 52 961.0
20190418213644 51 157 7.0 0.0 0.00 0.00 0.00 52 960.9
20190418212543 51 157 7.0 0.0 0.00 0.00 0.00 52 961.0
20190418211443 52 135 7.0 0.0 0.00 0.00 0.00 51 960.8
20190418210342 52 135 11.0 0.0 0.00 0.00 0.00 51 960.7
20190418205241 52 157 7.0 0.0 0.00 0.00 0.00 51 960.7
20190418204141 52 135 11.0 0.0 0.00 0.00 0.00 51 960.6
20190418203041 52 135 11.0 0.0 0.00 0.00 0.00 51 960.6
20190418201941 53 112 4.0 0.0 0.00 0.00 0.00 51 960.5
20190418200841 53 135 4.0 0.0 0.00 0.00 0.00 50 960.5
20190418195740 53 135 11.0 0.0 0.00 0.00 0.00 50 960.5
20190418194640 53 135 7.0 0.0 0.00 0.00 0.00 49 960.4
20190418193540 53 135 4.0 0.0 0.00 0.00 0.00 49 960.5
20190418192439 53 135 4.0 0.0 0.00 0.00 0.00 48 960.3
20190418191339 54 112 7.0 0.0 0.00 0.00 0.00 48 960.2
20190418190238 54 135 4.0 0.0 0.00 0.00 0.00 48 960.0
20190418185138 54 112 4.0 0.0 0.00 0.00 0.00 48 960.0
20190418184038 54 135 7.0 0.0 0.00 0.00 0.00 48 959.9
20190418182938 55 112 4.0 0.0 0.00 0.00 0.00 47 959.8
20190418181837 55 135 4.0 0.0 0.00 0.00 0.00 46 959.8
20190418180737 56 157 4.0 0.0 0.00 0.00 0.00 45 959.8
20190418175637 56 135 4.0 0.0 0.00 0.00 0.00 44 959.6
20190418174537 57 112 4.0 0.0 0.00 0.00 0.00 44 959.5
20190418173436 58 112 2.0 0.0 0.00 0.00 0.00 43 959.5
20190418172336 58 45 7.0 0.0 0.00 0.00 0.00 43 959.2
20190418171235 58 135 0.0 0.0 0.00 0.00 0.00 42 959.3
20190418170135 59 112 9.0 0.0 0.00 0.00 0.00 42 958.8
20190418165035 60 112 7.0 0.0 0.00 0.00 0.00 41 958.8
20190418163934 60 135 7.0 0.0 0.00 0.00 0.00 41 958.8
20190418162834 60 112 4.0 0.0 0.00 0.00 0.00 41 958.8
20190418161741 60 135 4.0 0.0 0.00 0.00 0.00 40 958.8
20190418160633 60 180 4.0 0.0 0.00 0.00 0.00 40 958.9
20190418155532 61 112 7.0 0.0 0.00 0.00 0.00 40 958.8
20190418154432 62 157 7.0 0.0 0.00 0.00 0.00 40 958.8
20190418153332 62 112 4.0 0.0 0.00 0.00 0.00 39 958.8
20190418152231 62 135 4.0 0.0 0.00 0.00 0.00 39 958.8
20190418151129 62 112 7.0 0.0 0.00 0.00 0.00 39 958.8
20190418150029 62 135 4.0 0.0 0.00 0.00 0.00 39 958.8
20190418144927 61 135 11.0 0.0 0.00 0.00 0.00 39 958.7
20190418143827 62 157 7.0 0.0 0.00 0.00 0.00 39 958.6
20190418142726 61 135 4.0 0.0 0.00 0.00 0.00 38 958.9
20190418141626 61 135 13.0 0.0 0.00 0.00 0.00 38 958.9
20190418140526 62 112 4.0 0.0 0.00 0.00 0.00 38 958.8
20190418135425 62 135 9.0 0.0 0.00 0.00 0.00 37 958.8
20190418134325 62 135 7.0 0.0 0.00 0.00 0.00 37 959.0
20190418133225 62 135 11.0 0.0 0.00 0.00 0.00 39 959.0
20190418132124 61 135 9.0 0.0 0.00 0.00 0.00 39 959.0
20190418131024 61 0 0.0 0.0 0.00 0.00 0.00 38 959.1
20190418125924 61 135 7.0 0.0 0.00 0.00 0.00 38 959.1
20190418124823 62 112 11.0 0.0 0.00 0.00 0.00 38 959.1
20190418123723 61 135 4.0 0.0 0.00 0.00 0.00 37 959.1
20190418122623 62 157 11.0 0.0 0.00 0.00 0.00 39 959.2
20190418121523 62 157 7.0 0.0 0.00 0.00 0.00 36 959.2
20190418120422 62 67 9.0 0.0 0.00 0.00 0.00 35 959.2
20190418115322 66 135 7.0 0.0 0.00 0.00 0.00 34 959.2
20190418114221 71 112 11.0 0.0 0.00 0.00 0.00 30 959.2
20190418113121 71 157 9.0 0.0 0.00 0.00 0.00 29 959.2
20190418112020 71 135 9.0 0.0 0.00 0.00 0.00 28 959.2
20190418110919 70 0 0.0 0.0 0.00 0.00 0.00 29 959.2
20190418105819 70 0 0.0 0.0 0.00 0.00 0.00 29 959.2
20190418104717 70 112 7.0 0.0 0.00 0.00 0.00 30 959.2
20190418103617 69 135 7.0 0.0 0.00 0.00 0.00 30 959.2
20190418102516 69 135 2.0 0.0 0.00 0.00 0.00 29 959.2
20190418101416 70 67 13.0 0.0 0.00 0.00 0.00 30 959.2
20190418100316 72 67 7.0 0.0 0.00 0.00 0.00 29 959.2
20190418095215 67 67 7.0 0.0 0.00 0.00 0.00 31 959.2
20190418094115 67 0 0.0 0.0 0.00 0.00 0.00 33 959.2
20190418093015 69 157 4.0 0.0 0.00 0.00 0.00 31 959.5
20190418091914 70 157 9.0 0.0 0.00 0.00 0.00 32 959.5
20190418090813 71 135 7.0 0.0 0.00 0.00 0.00 31 959.5
20190418085713 71 0 0.0 0.0 0.00 0.00 0.00 32 959.6
20190418084612 68 135 2.0 0.0 0.00 0.00 0.00 34 959.5
20190418083512 68 112 9.0 0.0 0.00 0.00 0.00 33 959.6
20190418082411 68 112 9.0 0.0 0.00 0.00 0.00 35 959.5
20190418081311 67 135 9.0 0.0 0.00 0.00 0.00 36 959.6
20190418080210 68 135 9.0 0.0 0.00 0.00 0.00 36 959.5
20190418075109 68 135 9.0 0.0 0.00 0.00 0.00 35 959.3
20190418074009 68 135 2.0 0.0 0.00 0.00 0.00 35 959.3
20190418072908 66 112 13.0 0.0 0.00 0.00 0.00 37 959.2
20190418071808 66 90 7.0 0.0 0.00 0.00 0.00 37 959.1
20190418070704 68 0 0.0 0.0 0.00 0.00 0.00 37 959.1
20190418065604 68 112 7.0 0.0 0.00 0.00 0.00 36 959.1
20190418064504 68 135 7.0 0.0 0.00 0.00 0.00 36 958.9
20190418063404 68 67 2.0 0.0 0.00 0.00 0.00 38 958.9
20190418062302 68 67 2.0 0.0 0.00 0.00 0.00 38 958.9
20190418061201 67 45 4.0 0.0 0.00 0.00 0.00 38 958.9
20190418060100 69 0 4.0 0.0 0.00 0.00 0.00 38 959.0
20190418055000 67 22 0.0 0.0 0.00 0.00 0.00 40 958.6
20190418053859 67 45 0.0 0.0 0.00 0.00 0.00 43 958.7
20190418052758 62 337 0.0 0.0 0.00 0.00 0.00 48 958.6
20190418051658 59 315 0.0 0.0 0.00 0.00 0.00 55 958.6
20190418050557 51 270 0.0 0.0 0.00 0.00 0.00 63 958.5
20190418045457 48 337 7.0 0.0 0.00 0.00 0.00 69 958.2
20190418044356 41 112 2.0 0.0 0.00 0.00 0.00 72 958.2
20190418043256 41 270 0.0 0.0 0.00 0.00 0.00 75 958.1
20190418042155 39 270 2.0 0.0 0.00 0.00 0.00 75 958.0
20190418041054 39 292 2.0 0.0 0.00 0.00 0.00 75 958.0
20190418035953 39 270 2.0 0.0 0.00 0.00 0.00 75 958.0
20190418034853 39 292 4.0 0.0 0.00 0.00 0.00 74 958.0
20190418033752 39 292 0.0 0.0 0.00 0.00 0.00 74 958.0
20190418032652 40 292 2.0 0.0 0.00 0.00 0.00 73 958.0
20190418031552 40 292 0.0 0.0 0.00 0.00 0.00 73 958.1
20190418030452 40 292 0.0 0.0 0.00 0.00 0.00 73 958.1
20190418025351 41 292 4.0 0.0 0.00 0.00 0.00 72 958.1
20190418024251 41 315 4.0 0.0 0.00 0.00 0.00 72 958.1
20190418023150 41 22 0.0 0.0 0.00 0.00 0.00 71 958.2
20190418022050 42 337 0.0 0.0 0.00 0.00 0.00 71 958.2